TimeEST,TemperatureF,Dew PointF,Humidity,Sea Level PressureIn,VisibilityMPH,Wind Direction,Wind SpeedMPH,Gust SpeedMPH,PrecipitationIn,Events,Conditions,WindDirDegrees,DateUTC
12:00 AM,39.2,30.2,70,29.91,25.0,NW,6.9,-,N/A,,Overcast,310,2012-11-04 04:00:00
1:00 AM,37.4,30.2,75,29.93,25.0,West,4.6,-,N/A,,Overcast,280,2012-11-04 05:00:00
1:00 AM,37.4,30.2,75,29.93,25.0,West,4.6,-,N/A,,Overcast,260,2012-11-04 06:00:00
2:00 AM,35.6,30.2,81,29.94,25.0,WSW,5.8,-,N/A,,Overcast,250,2012-11-04 07:00:00
3:00 AM,35.6,30.2,81,29.94,25.0,WSW,4.6,-,N/A,,Overcast,250,2012-11-04 08:00:00
4:00 AM,35.6,30.2,81,29.94,25.0,West,4.6,-,N/A,,Overcast,260,2012-11-04 09:00:00
5:00 AM,35.6,30.2,81,29.96,25.0,WNW,5.8,-,N/A,,Overcast,290,2012-11-04 10:00:00
6:00 AM,35.6,28.4,75,29.97,25.0,NW,8.1,-,N/A,,Overcast,310,2012-11-04 11:00:00
7:00 AM,35.6,26.6,70,29.99,35.0,NW,6.9,-,N/A,,Mostly Cloudy,310,2012-11-04 12:00:00
7:06 AM,35.6,26.6,70,29.99,25.0,NW,5.8,-,N/A,,Mostly Cloudy,310,2012-11-04 12:06:00
8:00 AM,35.6,26.6,70,30.01,25.0,WNW,8.1,-,N/A,,Overcast,300,2012-11-04 13:00:00
9:00 AM,35.6,26.6,70,30.01,45.0,NW,9.2,-,N/A,,Overcast,320,2012-11-04 14:00:00
10:00 AM,35.6,26.6,70,30.01,45.0,NW,6.9,-,N/A,,Overcast,310,2012-11-04 15:00:00
11:00 AM,35.6,26.6,70,30.00,45.0,NNW,8.1,-,N/A,,Mostly Cloudy,330,2012-11-04 16:00:00
12:00 PM,37.4,26.6,65,30.00,45.0,North,6.9,-,N/A,,Mostly Cloudy,360,2012-11-04 17:00:00
1:00 PM,37.4,24.8,60,30.00,45.0,NW,6.9,-,N/A,,Overcast,310,2012-11-04 18:00:00
2:00 PM,37.4,23.0,56,30.00,45.0,NW,9.2,-,N/A,,Overcast,320,2012-11-04 19:00:00
3:00 PM,37.4,24.8,60,30.00,45.0,WNW,8.1,-,N/A,,Overcast,300,2012-11-04 20:00:00
4:00 PM,37.4,24.8,60,30.01,45.0,NNW,12.7,-,N/A,,Overcast,330,2012-11-04 21:00:00
5:00 PM,35.6,23.0,60,30.03,25.0,WNW,5.8,-,N/A,,Overcast,300,2012-11-04 22:00:00
6:00 PM,35.6,23.0,60,30.04,25.0,NW,8.1,-,N/A,,Overcast,310,2012-11-04 23:00:00
7:00 PM,35.6,23.0,60,30.05,25.0,NW,4.6,-,N/A,,Overcast,310,2012-11-05 00:00:00
8:00 PM,33.8,23.0,65,30.06,25.0,North,8.1,-,N/A,,Overcast,10,2012-11-05 01:00:00
9:00 PM,33.8,21.2,60,30.06,25.0,North,8.1,-,N/A,,Overcast,350,2012-11-05 02:00:00
10:00 PM,33.8,23.0,65,30.06,25.0,North,4.6,-,N/A,,Overcast,350,2012-11-05 03:00:00